Location: Trois-Rivi�res
(46.3500°N, 72.5500°W)
Time: 20:07:40
(UTC-04:00)

Envisat - Pass Details

Date: 16 October 2017
Orbit: 764 x 766 km, 98.2° (Epoch: 16 October)

Event Time Altitude Azimuth Distance (km) Brightness Sun altitude
Exits shadow 20:46:16 69° 279° (W) 820 3.2 -29.0°
Drops below altitude 10° 20:51:08 10° 342° (NNW) 2,312 5.9 -29.7°
Sets 20:53:27 0° 345° (NNW) 3,243 6.7 -30.1°
